FW9258 Weather Reports


time (UTC)temp
F
wind
direction
speed
knots
gust
knots
rain 1hr
in
rain 24hr
in
rain mn
in
humidity
%
barometer
mb
20260507201019 51 0 0.0 0.0 0.00 0.00 0.00 80 1015.4
20260507200516 51 0 0.0 1.7 0.00 0.00 0.00 80 1015.4
20260507200034 51 0 0.0 2.6 0.00 0.00 0.00 79 1015.3
20260507195515 51 335 0.9 2.6 0.00 0.00 0.00 80 1015.2
20260507195015 50 333 0.0 1.7 0.00 0.00 0.00 80 1015.2
20260507194534 50 336 0.9 2.6 0.00 0.00 0.00 80 1015.1
20260507194015 50 333 0.9 2.6 0.00 0.00 0.00 80 1015.2
20260507193520 50 333 0.9 1.7 0.00 0.00 0.00 80 1015.3
20260507193032 50 334 0.9 1.7 0.00 0.00 0.00 82 1015.2
20260507192515 50 333 0.9 1.7 0.00 0.00 0.00 82 1015.1
20260507192016 51 334 0.0 1.7 0.00 0.00 0.00 82 1015.1
20260507191532 51 0 0.0 2.6 0.00 0.00 0.00 82 1015.1
20260507191015 51 334 0.9 2.6 0.00 0.00 0.00 81 1015.2
20260507190516 52 0 0.0 0.9 0.00 0.00 0.00 81 1015.1
20260507190034 52 0 0.0 0.9 0.00 0.00 0.00 81 1015.2
20260507185515 52 0 0.0 0.0 0.00 0.00 0.00 80 1015.1
20260507185015 53 0 0.0 0.0 0.00 0.00 0.00 80 1015.2
20260507184532 53 0 0.0 0.0 0.00 0.00 0.00 80 1015.2
20260507184016 53 0 0.0 0.0 0.00 0.00 0.00 80 1015.1
20260507183515 53 0 0.0 0.0 0.00 0.00 0.00 79 1015.2
20260507183034 53 0 0.0 0.0 0.00 0.00 0.00 79 1015.2
20260507182515 54 0 0.0 0.0 0.00 0.00 0.00 78 1015.2
20260507182016 54 0 0.0 0.9 0.00 0.00 0.00 77 1015.2
20260507181534 54 0 0.0 0.9 0.00 0.00 0.00 76 1015.2
20260507181016 55 0 0.0 0.9 0.00 0.00 0.00 76 1015.2
20260507180516 54 0 0.0 0.9 0.00 0.00 0.00 76 1015.2
20260507180031 54 0 0.0 0.9 0.00 0.00 0.00 75 1015.3
20260507175516 55 0 0.0 0.9 0.00 0.00 0.00 74 1015.2
20260507175016 54 0 0.0 0.9 0.00 0.00 0.00 76 1015.2
20260507174530 54 0 0.0 0.9 0.00 0.00 0.00 75 1015.2
20260507174016 54 331 0.0 0.9 0.00 0.00 0.00 74 1015.3
20260507173515 55 0 0.0 0.9 0.00 0.00 0.00 75 1015.3
20260507173040 55 0 0.0 0.9 0.00 0.00 0.00 75 1015.3
20260507172516 55 325 0.0 1.7 0.00 0.00 0.00 76 1015.3
20260507172021 54 0 0.0 1.7 0.00 0.00 0.00 74 1015.3
20260507171530 55 320 0.0 1.7 0.00 0.00 0.00 78 1015.3
20260507171015 54 311 0.9 3.5 0.00 0.00 0.00 77 1015.3
20260507170515 54 314 0.9 6.1 0.00 0.00 0.00 77 1015.3
20260507170034 54 275 0.9 6.1 0.00 0.00 0.00 78 1015.3
20260507165515 54 307 0.9 6.1 0.00 0.00 0.00 79 1015.4
20260507165016 55 312 2.6 6.1 0.00 0.00 0.00 78 1015.4
20260507164532 56 300 3.5 6.1 0.00 0.00 0.00 78 1015.4
20260507164015 56 352 1.7 6.1 0.00 0.00 0.00 78 1015.4
20260507163516 56 336 1.7 4.3 0.00 0.00 0.00 78 1015.4
20260507163035 55 134 2.6 5.2 0.00 0.00 0.00 79 1015.4
20260507162517 55 309 2.6 5.2 0.00 0.00 0.00 78 1015.3
20260507162016 56 304 0.9 5.2 0.00 0.00 0.00 78 1015.4
20260507161535 57 323 2.6 5.2 0.00 0.00 0.00 76 1015.3
20260507161015 58 296 0.9 4.3 0.00 0.00 0.00 77 1015.2
20260507160517 58 297 1.7 4.3 0.00 0.00 0.00 77 1015.3
20260507160035 58 283 0.9 3.5 0.00 0.00 0.00 76 1015.3
20260507155516 57 305 1.7 3.5 0.00 0.00 0.00 75 1015.3
20260507155019 58 314 1.7 5.2 0.00 0.00 0.00 76 1015.3
20260507154535 57 302 0.9 6.1 0.00 0.00 0.00 78 1015.3
20260507154015 57 300 1.7 6.1 0.00 0.00 0.00 77 1015.3
20260507153520 57 276 0.9 6.1 0.00 0.00 0.00 80 1015.4
20260507153035 56 303 2.6 5.2 0.00 0.00 0.00 79 1015.3
20260507152515 56 281 3.5 7.0 0.00 0.00 0.00 77 1015.3
20260507152016 56 283 2.6 7.0 0.00 0.00 0.00 78 1015.3
20260507151537 56 265 3.5 6.1 0.00 0.00 0.00 77 1015.2
20260507151016 57 276 1.7 7.0 0.00 0.00 0.00 75 1015.2
20260507150521 56 287 2.6 7.0 0.00 0.00 0.00 72 1015.3
20260507150035 57 290 2.6 7.0 0.00 0.00 0.00 72 1015.3
20260507145519 57 293 2.6 7.0 0.00 0.00 0.00 75 1015.3
20260507145015 57 290 2.6 7.0 0.00 0.00 0.00 75 1015.3
20260507144549 57 257 2.6 7.0 0.00 0.00 0.00 74 1015.2
20260507144015 58 306 0.9 5.2 0.00 0.00 0.00 73 1015.3
20260507143518 58 16 2.6 5.2 0.00 0.00 0.00 75 1015.3
20260507143032 57 300 0.9 7.0 0.00 0.00 0.00 76 1015.3
20260507142516 57 0 0.9 7.0 0.00 0.00 0.00 76 1015.4
20260507142024 56 298 3.5 6.1 0.00 0.00 0.00 73 1015.4
20260507141535 56 269 3.5 6.1 0.00 0.00 0.00 72 1015.4
20260507141015 56 314 2.6 6.1 0.00 0.00 0.00 74 1015.5
20260507140515 57 289 3.5 6.1 0.00 0.00 0.00 75 1015.6
20260507140037 57 295 0.9 4.3 0.00 0.00 0.00 76 1015.7
20260507135517 57 300 1.7 5.2 0.00 0.00 0.00 74 1015.7
20260507135018 57 305 2.6 5.2 0.00 0.00 0.00 74 1015.8
20260507134537 58 300 2.6 5.2 0.00 0.00 0.00 75 1015.7
20260507134018 58 276 1.7 7.0 0.00 0.00 0.00 77 1015.7
20260507133517 57 283 1.7 7.0 0.00 0.00 0.00 75 1015.7
20260507133036 56 281 1.7 6.1 0.00 0.00 0.00 77 1015.7
20260507132518 56 293 2.6 7.0 0.00 0.00 0.00 75 1015.6
20260507132016 56 297 3.5 7.0 0.00 0.00 0.00 78 1015.7
20260507131534 56 275 1.7 6.1 0.00 0.00 0.00 76 1015.6
20260507131017 57 284 1.7 6.1 0.00 0.00 0.00 75 1015.6
20260507130515 57 309 1.7 7.0 0.00 0.00 0.00 77 1015.6
20260507130035 56 248 2.6 7.8 0.00 0.00 0.00 77 1015.6
20260507125516 56 236 2.6 7.8 0.00 0.00 0.00 78 1015.6
20260507125017 55 299 3.5 7.8 0.00 0.00 0.00 81 1015.6
20260507124531 56 313 2.6 7.8 0.00 0.00 0.00 81 1015.5
20260507124018 55 299 3.5 7.8 0.00 0.00 0.00 81 1015.7
20260507123515 55 257 4.3 7.8 0.00 0.00 0.00 81 1015.7
20260507123036 56 280 5.2 8.7 0.00 0.00 0.00 80 1015.7
20260507122518 56 284 4.3 8.7 0.00 0.00 0.00 80 1015.6
20260507122016 56 302 5.2 7.8 0.00 0.00 0.00 79 1015.6
20260507121535 58 281 2.6 7.0 0.00 0.00 0.00 78 1015.6
20260507121018 58 264 1.7 6.1 0.00 0.00 0.00 78 1015.7
20260507120515 58 284 2.6 7.0 0.00 0.00 0.00 78 1015.7
20260507120035 57 305 1.7 7.0 0.00 0.00 0.00 79 1015.7
20260507115519 57 153 2.6 7.8 0.00 0.00 0.00 78 1015.7
20260507115016 57 301 3.5 7.8 0.00 0.00 0.00 78 1015.8
20260507114535 57 295 3.5 7.0 0.00 0.00 0.00 78 1015.7
20260507114015 57 291 2.6 7.0 0.00 0.00 0.00 77 1015.8
20260507113516 57 269 2.6 6.1 0.00 0.00 0.00 79 1015.8
20260507113033 57 323 1.7 6.1 0.00 0.00 0.00 78 1015.8
20260507112518 56 300 1.7 7.0 0.00 0.00 0.00 79 1015.7
20260507112017 56 240 1.7 7.0 0.00 0.00 0.00 80 1015.7
20260507111543 56 314 3.5 7.8 0.00 0.00 0.00 78 1015.7
20260507111018 56 147 3.5 7.8 0.00 0.00 0.00 78 1015.8
20260507110518 56 320 2.6 7.8 0.00 0.00 0.00 77 1015.9
20260507110030 57 306 2.6 8.7 0.00 0.00 0.00 79 1015.8
20260507105514 56 323 1.7 8.7 0.00 0.00 0.00 79 1015.7
20260507105017 56 304 2.6 6.1 0.00 0.00 0.00 78 1015.8
20260507104536 56 287 2.6 6.1 0.00 0.00 0.00 78 1015.9
20260507104019 56 24 2.6 7.8 0.00 0.00 0.00 79 1015.9
20260507103518 55 278 4.3 7.8 0.00 0.00 0.00 78 1015.9
20260507103039 56 331 2.6 7.0 0.00 0.00 0.00 80 1015.9
20260507102517 55 283 3.5 7.0 0.00 0.00 0.00 79 1015.9
20260507102016 55 61 3.5 7.0 0.00 0.00 0.00 78 1015.8
20260507101544 55 181 1.7 7.0 0.00 0.00 0.00 80 1015.8
20260507101016 55 288 2.6 7.0 0.00 0.00 0.00 79 1015.8
20260507100516 56 94 1.7 8.7 0.00 0.00 0.00 78 1015.8
20260507100040 55 338 3.5 8.7 0.00 0.00 0.00 79 1015.7
20260507095518 55 286 4.3 10.4 0.00 0.00 0.00 79 1015.7
20260507095014 55 346 3.5 10.4 0.00 0.00 0.00 79 1015.7
20260507094540 55 217 5.2 8.7 0.00 0.00 0.00 80 1015.7
20260507094015 55 122 4.3 8.7 0.00 0.00 0.00 80 1015.7
20260507093515 55 25 3.5 9.6 0.00 0.00 0.00 80 1015.6
20260507093042 55 125 4.3 9.6 0.00 0.00 0.00 80 1015.6
20260507092518 54 205 4.3 9.6 0.00 0.00 0.00 80 1015.6
20260507092018 54 146 5.2 9.6 0.00 0.00 0.00 79 1015.6
20260507091539 55 342 5.2 9.6 0.00 0.00 0.00 81 1015.6
20260507091018 54 153 5.2 9.6 0.00 0.00 0.00 80 1015.7
20260507090518 54 188 3.5 7.8 0.00 0.00 0.00 80 1015.6
20260507090037 53 301 4.3 8.7 0.00 0.00 0.00 80 1015.6
20260507085515 53 308 4.3 10.4 0.00 0.00 0.00 79 1015.5
20260507085017 53 122 5.2 10.4 0.00 0.00 0.00 79 1015.5
20260507084537 53 72 3.5 7.8 0.00 0.00 0.00 78 1015.5
20260507084018 54 166 4.3 9.6 0.00 0.00 0.00 78 1015.5
20260507083517 54 96 5.2 9.6 0.00 0.00 0.00 78 1015.5
20260507083032 54 330 3.5 8.7 0.00 0.00 0.00 78 1015.5
20260507082517 54 170 4.3 8.7 0.00 0.00 0.00 79 1015.5
20260507082015 53 35 4.3 7.8 0.00 0.00 0.00 78 1015.4
20260507081536 53 113 3.5 7.8 0.00 0.00 0.00 81 1015.4
20260507081018 53 184 3.5 7.8 0.00 0.00 0.00 80 1015.5
20260507080515 53 63 4.3 8.7 0.00 0.00 0.00 80 1015.5
20260507080043 53 101 4.3 8.7 0.00 0.00 0.00 81 1015.4
20260507075518 52 101 4.3 10.4 0.00 0.00 0.00 83 1015.3
20260507075022 52 76 5.2 10.4 0.00 0.00 0.00 82 1015.3
20260507074534 52 78 6.1 10.4 0.00 0.00 0.00 83 1015.4
20260507074016 52 94 6.1 9.6 0.00 0.00 0.00 84 1015.3
20260507073515 51 102 6.1 11.3 0.00 0.00 0.00 84 1015.2
20260507073036 50 105 6.1 11.3 0.00 0.00 0.00 84 1015.4
20260507072515 51 131 5.2 11.3 0.00 0.00 0.00 84 1015.4
20260507072018 51 106 5.2 11.3 0.00 0.00 0.00 84 1015.3
20260507071535 51 87 7.0 11.3 0.00 0.00 0.00 85 1015.2
20260507071016 51 111 5.2 9.6 0.00 0.00 0.00 86 1015.2
20260507070516 50 110 4.3 9.6 0.00 0.00 0.00 87 1015.1
20260507070036 50 128 5.2 9.6 0.00 0.00 0.00 87 1015.1
20260507065515 50 113 4.3 8.7 0.00 0.00 0.00 87 1015.1
20260507065015 49 39 3.5 8.7 0.00 0.00 0.00 87 1015.1
20260507064535 49 101 4.3 7.8 0.00 0.00 0.00 87 1015.1
20260507064018 49 321 3.5 7.8 0.00 0.00 0.00 87 1015.0
20260507063516 49 145 1.7 7.8 0.00 0.00 0.00 87 1015.1
20260507063042 49 326 3.5 7.8 0.00 0.00 0.00 86 1015.0
20260507062523 49 269 1.7 7.0 0.00 0.00 0.00 87 1015.0
20260507062018 49 31 3.5 9.6 0.00 0.00 0.00 87 1015.0
20260507061534 48 34 3.5 9.6 0.00 0.00 0.00 87 1015.0
20260507061018 48 219 3.5 9.6 0.00 0.00 0.00 87 1015.0
20260507060517 48 122 2.6 7.0 0.00 0.00 0.00 87 1014.9
20260507060048 48 279 2.6 6.1 0.00 0.00 0.00 87 1014.9
20260507055520 48 311 1.7 9.6 0.00 0.00 0.00 87 1014.9
20260507055017 48 314 1.7 9.6 0.00 0.00 0.00 87 1015.0
20260507054545 48 17 3.5 9.6 0.00 0.00 0.00 87 1015.0
20260507054017 48 41 4.3 8.7 0.00 0.00 0.00 87 1014.9
20260507053519 48 268 2.6 8.7 0.00 0.00 0.00 87 1015.0
20260507053034 48 136 4.3 8.7 0.00 0.00 0.00 87 1014.9
20260507052520 48 8 2.6 8.7 0.00 0.00 0.00 87 1014.9
20260507052019 47 93 5.2 7.8 0.00 0.00 0.00 87 1014.8
20260507051535 47 100 2.6 7.8 0.00 0.00 0.00 87 1014.9
20260507051017 47 260 2.6 8.7 0.00 0.00 0.00 87 1014.8
20260507050515 47 132 4.3 8.7 0.00 0.00 0.00 87 1014.9
20260507050034 47 118 4.3 8.7 0.00 0.00 0.00 87 1014.7
20260507045515 47 133 5.2 8.7 0.00 0.00 0.00 87 1014.7
20260507045016 47 309 3.5 7.8 0.00 0.00 0.00 87 1014.7
20260507044547 47 148 2.6 7.8 0.00 0.00 0.00 87 1014.7
20260507044017 48 120 3.5 8.7 0.00 0.00 0.00 87 1014.6
20260507043518 48 319 3.5 8.7 0.00 0.00 0.00 86 1014.6
20260507043032 48 114 4.3 7.8 0.00 0.00 0.00 86 1014.5
20260507042516 48 115 4.3 8.7 0.00 0.00 0.00 86 1014.5
20260507042015 48 88 3.5 10.4 0.00 0.00 0.00 85 1014.5
20260507041536 48 128 6.1 10.4 0.00 0.00 0.00 85 1014.5
20260507041018 48 111 4.3 8.7 0.00 0.00 0.00 85 1014.5
20260507040517 48 114 3.5 9.6 0.00 0.00 0.00 85 1014.4
20260507040036 48 148 5.2 9.6 0.00 0.00 0.00 85 1014.5
20260507035519 48 119 2.6 6.1 0.00 0.00 0.00 85 1014.4
20260507035019 48 43 2.6 9.6 0.00 0.00 0.00 84 1014.5
20260507034538 49 337 2.6 9.6 0.00 0.00 0.00 84 1014.4
20260507034015 49 120 4.3 8.7 0.00 0.00 0.00 84 1014.4
20260507033515 49 116 4.3 7.8 0.00 0.00 0.00 84 1014.5
20260507033035 49 108 3.5 7.8 0.00 0.00 0.00 83 1014.5
20260507032514 48 110 2.6 5.2 0.00 0.00 0.00 83 1014.5
20260507032014 49 49 2.6 5.2 0.00 0.00 0.00 83 1014.6
20260507031533 49 131 2.6 7.0 0.00 0.00 0.00 83 1014.6
20260507031017 49 334 3.5 7.0 0.00 0.00 0.00 82 1014.5
20260507030518 49 119 3.5 8.7 0.00 0.00 0.00 82 1014.6
20260507030031 49 345 2.6 8.7 0.00 0.00 0.00 82 1014.6
20260507025515 49 123 5.2 8.7 0.00 0.00 0.00 82 1014.7
20260507025015 49 108 4.3 7.8 0.00 0.00 0.00 82 1014.6
20260507024535 49 108 5.2 7.8 0.00 0.00 0.00 83 1014.7
20260507024014 49 25 4.3 7.8 0.00 0.00 0.00 85 1014.7
20260507023516 49 126 3.5 7.8 0.00 0.00 0.00 88 1014.7
20260507023032 49 338 1.7 3.5 0.00 0.00 0.00 88 1014.6
20260507022520 49 110 0.9 2.6 0.00 0.00 0.00 88 1014.7
20260507022016 49 353 0.9 1.7 0.00 0.00 0.00 88 1014.7
20260507021532 49 321 0.0 0.9 0.00 0.00 0.00 88 1014.7
20260507021020 49 0 0.0 0.9 0.00 0.00 0.00 87 1014.7
20260507020516 49 0 0.0 0.0 0.00 0.00 0.00 87 1014.7
20260507020043 49 0 0.0 0.9 0.00 0.00 0.00 87 1014.7
20260507015517 49 0 0.0 0.9 0.00 0.00 0.00 87 1014.7
20260507015015 49 0 0.0 0.0 0.00 0.00 0.00 86 1014.7
20260507014535 49 0 0.0 0.0 0.00 0.00 0.00 86 1014.7
20260507014018 49 0 0.0 0.0 0.00 0.00 0.00 86 1014.8
20260507013514 49 0 0.0 0.9 0.00 0.00 0.00 86 1014.8
20260507013036 49 0 0.0 0.9 0.00 0.00 0.00 85 1014.8
20260507012517 49 332 0.0 1.7 0.00 0.00 0.00 85 1014.8
20260507012018 49 0 0.0 1.7 0.00 0.00 0.00 85 1014.8
20260507011535 49 0 0.0 1.7 0.00 0.00 0.00 84 1014.8
20260507011020 49 0 0.9 1.7 0.00 0.00 0.00 84 1014.9
20260507010517 49 332 0.0 0.9 0.00 0.00 0.00 84 1014.7
20260507010040 49 332 0.0 1.7 0.00 0.00 0.00 84 1014.8
20260507005515 49 0 0.0 1.7 0.00 0.00 0.00 84 1014.8
20260507005018 49 338 0.0 1.7 0.00 0.00 0.00 84 1014.8
20260507004534 49 0 0.0 0.9 0.00 0.00 0.00 84 1014.8
20260507004018 49 0 0.0 0.9 0.00 0.00 0.00 83 1014.9
20260507003516 49 331 0.0 1.7 0.00 0.00 0.00 83 1014.9
20260507003039 49 0 0.0 1.7 0.00 0.00 0.00 83 1014.9
20260507002515 49 326 0.0 0.9 0.00 0.00 0.00 83 1015.0
20260507002018 49 333 0.0 1.7 0.00 0.00 0.00 83 1014.9
20260507001540 49 333 0.0 1.7 0.00 0.00 0.00 82 1015.0
20260507001015 49 333 0.9 1.7 0.00 0.00 0.00 82 1015.0
20260507000519 49 332 0.0 1.7 0.00 0.00 0.00 82 1015.0
20260507000035 49 330 0.9 1.7 0.00 0.00 0.00 82 1015.0
20260506235515 49 333 0.0 1.7 0.00 0.00 0.00 82 1015.0
20260506235015 49 0 0.0 1.7 0.00 0.00 0.00 81 1015.1
20260506234536 49 333 0.0 1.7 0.00 0.00 0.00 81 1014.9
20260506234016 49 333 0.0 2.6 0.00 0.00 0.00 81 1015.0
20260506233516 49 331 0.0 2.6 0.00 0.00 0.00 81 1015.0
20260506233036 49 0 0.9 2.6 0.00 0.00 0.00 81 1015.0
20260506232515 49 333 0.0 1.7 0.00 0.00 0.00 81 1014.9
20260506232018 49 0 0.0 1.7 0.00 0.00 0.00 80 1015.0
20260506231531 49 336 0.0 1.7 0.00 0.00 0.00 80 1015.0
20260506231015 49 330 0.0 1.7 0.00 0.00 0.00 80 1015.1
20260506230519 49 330 0.0 1.7 0.00 0.00 0.00 80 1015.0
20260506230033 49 333 0.9 1.7 0.00 0.00 0.00 80 1015.0
20260506225517 49 338 0.0 1.7 0.00 0.00 0.00 81 1015.0
20260506225016 49 334 0.0 1.7 0.00 0.00 0.00 81 1015.0
20260506224532 49 333 0.0 1.7 0.00 0.00 0.00 81 1015.1
20260506224015 49 334 0.0 1.7 0.00 0.00 0.00 81 1015.1
20260506223515 49 334 0.0 2.6 0.00 0.00 0.00 81 1015.0
20260506223030 49 347 0.9 2.6 0.00 0.00 0.00 81 1015.0
20260506222518 49 349 0.9 2.6 0.00 0.00 0.00 81 1015.0
20260506222014 49 333 1.7 2.6 0.00 0.00 0.00 81 1015.0
20260506221531 49 340 1.7 2.6 0.00 0.00 0.00 82 1015.0
20260506221015 49 329 0.9 2.6 0.00 0.00 0.00 82 1015.1
20260506220515 49 333 0.9 2.6 0.00 0.00 0.00 83 1015.0
20260506220037 49 339 0.9 2.6 0.00 0.00 0.00 83 1014.9
20260506215515 49 329 0.9 3.5 0.00 0.00 0.00 83 1014.9
20260506215016 49 350 0.9 3.5 0.00 0.00 0.00 82 1015.0
20260506214533 49 336 0.9 3.5 0.00 0.00 0.00 82 1015.0
20260506214017 49 338 1.7 4.3 0.00 0.00 0.00 82 1015.0
20260506213515 49 348 1.7 4.3 0.00 0.00 0.00 83 1015.0
20260506213030 49 335 2.6 3.5 0.00 0.00 0.00 83 1014.9
20260506212517 49 349 1.7 3.5 0.00 0.00 0.00 83 1015.0
20260506212016 49 338 0.9 2.6 0.00 0.00 0.00 83 1015.1
20260506211533 49 337 1.7 2.6 0.00 0.00 0.00 83 1015.0
20260506211016 49 340 1.7 3.5 0.00 0.00 0.00 83 1015.1
20260506210516 49 338 0.9 3.5 0.00 0.00 0.00 83 1015.1
20260506210039 49 335 0.9 2.6 0.00 0.00 0.00 82 1015.0
20260506205515 49 333 0.9 3.5 0.00 0.00 0.00 82 1015.0
20260506205021 50 336 1.7 4.3 0.00 0.00 0.00 82 1015.0
20260506204531 50 339 1.7 4.3 0.00 0.00 0.00 82 1015.0
20260506204016 50 359 0.9 3.5 0.00 0.00 0.00 82 1015.0
20260506203516 50 336 0.9 1.7 0.00 0.00 0.00 81 1015.0
20260506203035 50 335 0.9 1.7 0.00 0.00 0.00 81 1014.9
20260506202516 50 329 0.9 2.6 0.00 0.00 0.00 81 1014.8
20260506202018 50 337 0.9 2.6 0.00 0.00 0.00 80 1014.9
20260506201532 50 336 0.0 2.6 0.00 0.00 0.00 79 1014.8